This is the latest recevied weather packets stored in our database for station/object K5YNC. If no packets are shown the sender has not sent any weather packets the latest 10 day(s).
| Time | Temp. | Humidity | Pressure | Rain* | Wind** | Luminosity | Snow |
|---|---|---|---|---|---|---|---|
| 1777665512 | 18.89° C | 56% | 1018.4 hPa | 0 mm | - | 303 W/m² | - |
| 1777665207 | 18.89° C | 59% | 1018.5 hPa | 0 mm | - | 254 W/m² | - |
| 1777664903 | 18.89° C | 57% | 1018.4 hPa | 0 mm | - | 225 W/m² | - |
| 1777664600 | 18.89° C | 59% | 1018.5 hPa | 0 mm | - | 205 W/m² | - |
| 1777664296 | 18.89° C | 58% | 1018.5 hPa | 0 mm | - | 214 W/m² | - |
| 1777663995 | 18.89° C | 58% | 1018.5 hPa | 0 mm | - | 250 W/m² | - |
| 1777663692 | 19.44° C | 60% | 1018.4 hPa | 0 mm | - | 248 W/m² | - |
| 1777663389 | 19.44° C | 57% | 1018.4 hPa | 0 mm | - | 351 W/m² | - |
| 1777663085 | 20° C | 58% | 1018.7 hPa | 0 mm | - | 417 W/m² | - |
| 1777662783 | 19.44° C | 59% | 1018.4 hPa | 0 mm | - | 551 W/m² | - |
| 1777662479 | 20° C | 58% | 1018.3 hPa | 0 mm | - | 422 W/m² | - |
| 1777662175 | 19.44° C | 59% | 1018.5 hPa | 0 mm | - | 519 W/m² | - |
| 1777661871 | 20° C | 59% | 1018.4 hPa | 0 mm | - | 392 W/m² | - |
| 1777661567 | 20° C | 59% | 1018.5 hPa | 0 mm | - | 460 W/m² | - |
| 1777661263 | 19.44° C | 57% | 1018.8 hPa | 0 mm | - | 419 W/m² | - |
| 1777660958 | 19.44° C | 57% | 1018.7 hPa | 0 mm | - | 576 W/m² | - |
| 1777660654 | 18.89° C | 57% | 1018.9 hPa | 0 mm | - | 418 W/m² | - |
| 1777660352 | 18.89° C | 61% | 1019.1 hPa | 0 mm | - | 359 W/m² | - |
| 1777660048 | 18.89° C | 56% | 1019 hPa | 0 mm | - | 374 W/m² | - |
| 1777659745 | 18.89° C | 57% | 1019.3 hPa | 0 mm | - | 490 W/m² | - |
| 1777659442 | 19.44° C | 56% | 1019.2 hPa | 0 mm | - | 460 W/m² | - |
| 1777659139 | 18.89° C | 58% | 1019.1 hPa | 0 mm | - | 423 W/m² | - |
| 1777658837 | 18.89° C | 59% | 1018.9 hPa | 0 mm | - | 435 W/m² | - |
| 1777658532 | 18.33° C | 57% | 1019.2 hPa | 0 mm | - | 448 W/m² | - |
| 1777658229 | 18.33° C | 56% | 1019 hPa | 0 mm | - | 437 W/m² | - |
* Rain latest hour (hover to see other rain measurements)
** Current wind speed in m/s (hover to see current wind gust speed)